[[{"header":{"parameterUnit":"m.s-1","parameterCategory":1,"la1":30.2991,"la2":30.254,"lo1":-89.0895,"lo2":-89.0444,"dy":0.0017,"dx":0.0017,"nx":28,"ny":28,"refTime":"2024-08-02T03:00:00:Z","depth":0,"parameterNumber":2,"parameterNumberName":"U-component_of_WINDS"},"data":[0,0,0,0,0,0,0,0,0,0,0,0,0,0,0,0,0,0,0,0,0,0,0,0,0,0,0,0,0,0,0,0,0,0,0,0,0,0,0,0,0,0,0,0,0,0,0,0,0,0,0,0,0,0,0,0,0,0,3.6892,3.6893,0,3.698,3.6981,3.6982,3.6935,3.6932,3.693,3.6927,3.7021,3.7026,3.703,0,0,0,0,0,0,0,0,0,0,0,0,0,3.6689,3.6693,3.6892,3.6893,3.6895,3.698,3.6981,3.6982,3.6935,3.6932,3.6929,3.6926,3.702,3.7025,3.7031,0,0,0,0,0,0,0,0,0,0,0,0,0,3.6777,3.6694,3.6892,3.6881,3.6881,3.698,3.6981,3.6982,3.6936,3.6932,3.6928,3.6925,3.7018,3.7025,3.7032,3.7147,0,0,3.7053,3.7056,0,0,0,0,0,0,0,0,3.6772,3.6785,3.6882,3.6882,3.6882,3.6942,3.6944,3.7038,3.6936,3.6915,3.6927,3.6923,3.6998,3.7007,3.7031,3.7151,3.7155,3.7054,3.7058,3.7061,3.7063,0,0,0,0,0,0,0,3.6766,3.6781,3.6927,3.6883,3.6883,3.6873,3.6882,3.6961,3.6976,3.6917,3.6913,3.6924,3.6998,3.7024,3.7033,3.7157,3.7054,3.706,3.7064,3.7067,3.7379,3.7383,0,0,0,0,0,0,3.676,3.6776,3.6924,3.693,3.6817,3.688,3.6889,3.6927,3.6975,3.6978,3.6927,3.6922,3.7014,3.7025,3.7036,3.7176,3.7061,3.7068,3.7072,3.7375,3.738,3.7385,0,0,0,0,0,0,3.6756,3.6774,3.6921,3.6852,3.687,3.6887,3.693,3.693,3.6957,3.6983,3.6985,3.6951,3.7012,3.7026,3.712,3.7179,3.7071,3.7077,3.737,3.7377,3.7382,3.7457,0,0,0,0,0,0,3.675,3.6773,3.6815,3.6853,3.6874,3.7002,3.6933,3.6935,3.6969,3.6963,3.7006,3.701,3.701,3.711,3.7127,3.7187,3.7083,3.7365,3.7373,3.738,3.7449,3.7465,3.7478,0,0,0,0,0,3.6743,3.6833,3.6818,3.6836,3.6927,3.7006,3.7018,3.7014,3.6974,3.7018,3.7035,3.7009,3.7169,3.712,3.7139,3.7202,3.7362,3.7371,3.738,3.7443,3.7462,3.7478,0,0,0,0,0,0,3.6803,3.6838,3.6821,3.6926,3.6963,3.6997,3.7053,3.7034,3.7085,3.7077,3.7072,3.7082,3.718,3.72,3.7144,3.7317,3.7259,3.7273,3.7301,3.7319,3.7333,3.7327,3.7089,0,0,0,0,0,3.6828,3.6887,3.6915,3.7005,3.7024,3.7036,3.707,3.7064,3.7103,3.7119,3.7142,3.7182,3.7242,3.7281,3.7337,3.7451,3.7462,3.7504,3.7518,3.753,3.7542,3.7607,3.7627,3.7414,3.7414,3.7414,0,0,3.6881,3.6908,3.6946,3.7018,3.7046,3.7109,3.7049,3.7118,3.7166,3.7129,3.722,3.7239,3.7283,3.7389,3.7436,3.7408,3.7603,3.7542,3.7551,3.7557,3.7618,3.7638,3.7656,3.7421,3.7419,3.7418,0,0,3.7011,3.7036,3.7114,3.7144,3.7187,3.7194,3.7213,3.725,3.7261,3.7352,3.7326,3.7383,3.7485,3.7519,3.7549,3.7693,3.7672,3.7711,3.7787,3.785,3.7866,3.7881,3.7935,3.7954,3.7723,3.7723,3.7723,0,3.7072,3.7165,3.7157,3.7229,3.7263,3.7231,3.7312,3.7342,3.7401,3.7426,3.7393,3.7522,3.7549,3.7663,3.7699,3.7723,3.7747,3.7707,3.7864,3.7879,3.7893,3.7944,3.7964,3.7728,3.7727,3.7727,3.7726,0,3.7239,3.7304,3.7362,3.742,3.746,3.7536,3.7542,3.7584,3.7575,3.7586,3.768,3.7712,3.7775,3.7801,3.7793,3.7915,3.7896,3.7864,3.7806,3.7918,3.7966,3.7985,3.7734,3.7733,3.7731,3.773,0,0,3.7409,3.7462,3.7484,3.7511,3.7557,3.7608,3.7683,3.7743,3.7781,3.7823,3.7888,3.7975,3.7946,3.798,3.7976,3.8031,3.8146,3.7992,3.7993,3.8022,3.8284,3.831,3.8332,3.8131,3.8134,3.8137,3.8281,0,3.7544,3.7674,3.767,3.7793,3.7854,3.7826,3.7892,3.7928,3.7941,3.7996,3.801,3.8073,3.8028,3.8049,3.8102,3.812,3.8199,3.811,3.8193,3.8196,3.8185,3.8357,3.8384,3.8518,3.83,3.8303,3.8305,0,3.7718,3.7766,3.7894,3.7932,3.7958,3.8017,3.8073,3.8125,3.8167,3.8172,3.8211,3.8198,3.8277,3.8216,3.8325,3.8265,3.8299,3.8313,3.8318,3.8327,3.8259,3.8373,3.8561,3.8582,3.8334,3.8332,3.833,0,3.7833,3.7929,3.8019,3.8042,3.8088,3.8131,3.8152,3.819,3.8227,3.8276,3.8301,3.8359,3.8392,3.8438,3.8442,3.8397,3.8553,3.8492,3.8562,3.8562,3.8598,3.8596,3.8796,3.8616,3.8616,3.8616,3.8615,0,3.7984,3.8065,3.8071,3.8126,3.8216,3.8212,3.8301,3.8319,3.8352,3.8412,3.8391,3.8448,3.8449,3.8507,3.8511,3.8603,3.8617,3.8625,3.8626,3.8629,3.8628,3.8652,3.8644,3.8621,3.862,3.8619,3.8618,0,3.8128,3.8135,3.8232,3.8267,3.8278,3.8343,3.8374,3.8428,3.8438,3.8515,3.8532,3.855,3.8618,3.8626,3.8705,3.8708,3.8819,3.8808,3.8805,3.8804,3.8875,3.8869,3.9099,3.913,3.8928,3.893,3.8932,0,3.8226,3.8287,3.8329,3.8367,3.8391,3.8452,3.849,3.8488,3.8529,3.8581,3.8629,3.8695,3.8747,3.8858,3.8879,3.894,3.8932,3.9008,3.8941,3.8943,3.8936,3.8933,3.8941,3.9022,3.9024,3.9026,3.9028,0,3.8399,3.84,3.8454,3.8511,3.8557,3.8601,3.8643,3.8676,3.868,3.8727,3.8796,3.8836,3.8918,3.8984,3.9045,3.9068,3.905,3.9048,3.9068,3.9073,3.9069,3.9075,3.8843,3.9043,3.9042,3.9041,3.904,3.9039,3.8525,3.8578,3.8617,3.8679,3.871,3.875,3.8803,3.882,3.8877,3.8942,3.8938,3.9014,3.9056,3.9135,3.9163,3.9224,3.9199,3.9227,3.9235,3.9243,3.9251,3.9058,3.9235,3.9234,3.9234,3.9234,3.9233,0,3.8699,3.8722,3.8779,3.8838,3.8888,3.8864,3.891,3.8953,3.9021,3.906,3.9112,3.9192,3.9257,3.9282,3.9346,3.939,3.9384,3.9407,3.9405,3.9412,3.9268,3.9246,3.9412,3.9412,3.9412,3.9412,3.9412,3.9412,3.8796,3.8886,3.8891,3.8998,3.902,3.9095,3.9123,3.9161,3.9192,3.9282,3.9336,3.9351,3.9386,3.9452,3.9511,3.9517,3.9542,3.957,3.9573,3.9439,3.9421,3.9404,3.9383,3.9575,3.9575,3.9711,3.9713,3.9713]},{"header":{"parameterUnit":"m.s-1","parameterCategory":1,"la1":30.2991,"la2":30.254,"lo1":-89.0895,"lo2":-89.0444,"dy":0.0017,"dx":0.0017,"nx":28,"ny":28,"refTime":"2024-08-02T03:00:00:Z","depth":0,"parameterNumber":3,"parameterNumberName":"V-component_of_WINDS"},"data":[0,0,0,0,0,0,0,0,0,0,0,0,0,0,0,0,0,0,0,0,0,0,0,0,0,0,0,0,0,0,0,0,0,0,0,0,0,0,0,0,0,0,0,0,0,0,0,0,0,0,0,0,0,0,0,0,0,0,0.472,0.472,0,0.4729,0.4729,0.4729,0.4713,0.4712,0.4712,0.4711,0.472,0.4721,0.4721,0,0,0,0,0,0,0,0,0,0,0,0,0,0.4686,0.4687,0.472,0.472,0.472,0.4729,0.4729,0.4729,0.4713,0.4712,0.4711,0.4711,0.472,0.4721,0.4721,0,0,0,0,0,0,0,0,0,0,0,0,0,0.4699,0.4687,0.472,0.4713,0.4713,0.4729,0.4729,0.4729,0.4713,0.4712,0.4711,0.4711,0.4719,0.472,0.4722,0.4745,0,0,0.4725,0.4726,0,0,0,0,0,0,0,0,0.4698,0.47,0.4714,0.4714,0.4713,0.4719,0.4721,0.4735,0.4713,0.4713,0.4711,0.471,0.472,0.4721,0.4725,0.4746,0.4746,0.4725,0.4726,0.4726,0.4727,0,0,0,0,0,0,0,0.4697,0.47,0.4724,0.4714,0.4714,0.4709,0.471,0.4723,0.4721,0.4713,0.4712,0.4713,0.472,0.4724,0.4725,0.4746,0.4725,0.4726,0.4727,0.4727,0.4784,0.4784,0,0,0,0,0,0,0.4698,0.4699,0.4723,0.4724,0.4703,0.471,0.4711,0.4718,0.4721,0.4721,0.4714,0.4712,0.4722,0.4724,0.4725,0.4751,0.4726,0.4727,0.4728,0.4783,0.4784,0.4785,0,0,0,0,0,0,0.4697,0.47,0.4723,0.4711,0.4714,0.4712,0.4719,0.4719,0.4722,0.4722,0.4721,0.4718,0.4722,0.4724,0.474,0.4751,0.4728,0.4729,0.4782,0.4783,0.4784,0.4804,0,0,0,0,0,0,0.4696,0.47,0.4709,0.4712,0.4714,0.4738,0.472,0.4719,0.4724,0.4723,0.4726,0.4725,0.4721,0.4738,0.4741,0.4752,0.473,0.4781,0.4782,0.4784,0.4803,0.4806,0.4809,0,0,0,0,0,0.4695,0.4715,0.471,0.4713,0.4727,0.4739,0.4741,0.4736,0.4726,0.4735,0.4733,0.4725,0.4749,0.474,0.4743,0.4755,0.478,0.4782,0.4784,0.4801,0.4806,0.4809,0,0,0,0,0,0,0.4716,0.4716,0.471,0.4732,0.4735,0.4736,0.4748,0.4741,0.4747,0.4745,0.4738,0.4739,0.4756,0.4757,0.4747,0.4776,0.4763,0.4765,0.4775,0.4779,0.4782,0.4782,0.4731,0,0,0,0,0,0.4722,0.4733,0.4732,0.4752,0.4754,0.475,0.4756,0.4751,0.4755,0.4756,0.4757,0.476,0.4768,0.4774,0.4781,0.4803,0.4802,0.4812,0.4815,0.4818,0.482,0.4829,0.4833,0.4791,0.4791,0.4791,0,0,0.4737,0.4739,0.4746,0.4756,0.4758,0.4768,0.4752,0.4764,0.4771,0.4758,0.4773,0.4773,0.4776,0.4794,0.4802,0.4796,0.4831,0.482,0.4822,0.4823,0.4831,0.4835,0.4839,0.4792,0.4792,0.4792,0,0,0.4769,0.4772,0.4787,0.4789,0.4793,0.479,0.4793,0.4795,0.4794,0.4809,0.4799,0.4806,0.4821,0.4823,0.4826,0.4855,0.4847,0.4858,0.4875,0.4884,0.4887,0.489,0.4899,0.4902,0.486,0.486,0.486,0,0.4787,0.4803,0.4796,0.4808,0.4812,0.48,0.4814,0.4816,0.4822,0.4825,0.4817,0.4833,0.4835,0.4852,0.4859,0.4862,0.4865,0.4858,0.4887,0.489,0.4893,0.4901,0.4905,0.4862,0.4861,0.4861,0.4861,0,0.4824,0.4834,0.4846,0.4851,0.4856,0.4869,0.4864,0.4869,0.4863,0.4861,0.4875,0.4876,0.4882,0.4886,0.4881,0.4902,0.4897,0.4888,0.4875,0.4898,0.4906,0.4909,0.4863,0.4863,0.4862,0.4862,0,0,0.4871,0.487,0.4874,0.4875,0.4876,0.4884,0.4896,0.4902,0.4906,0.491,0.4918,0.493,0.4921,0.4924,0.4919,0.4926,0.4947,0.4916,0.4916,0.4921,0.4968,0.4974,0.4978,0.4942,0.4942,0.4943,0.4967,0,0.4901,0.4921,0.4914,0.4935,0.4943,0.493,0.494,0.4941,0.4939,0.4945,0.4942,0.4949,0.4938,0.4939,0.4946,0.4943,0.4956,0.4942,0.4949,0.4949,0.4948,0.4982,0.4989,0.5013,0.497,0.4971,0.4971,0,0.494,0.4944,0.4965,0.4962,0.4966,0.4975,0.4978,0.4985,0.4985,0.4982,0.4984,0.4977,0.4986,0.4973,0.4985,0.4975,0.4977,0.4976,0.4976,0.4977,0.4961,0.4983,0.502,0.5023,0.4976,0.4976,0.4976,0,0.497,0.4981,0.4994,0.4995,0.4994,0.5,0.4999,0.4999,0.5002,0.5004,0.5006,0.501,0.5012,0.5015,0.5008,0.4998,0.502,0.5006,0.5017,0.5017,0.5023,0.5022,0.506,0.5025,0.5025,0.5025,0.5025,0,0.5005,0.5018,0.5007,0.5016,0.5029,0.502,0.5033,0.5031,0.503,0.5037,0.5026,0.5032,0.5022,0.5027,0.5022,0.5032,0.5033,0.503,0.5028,0.5031,0.5031,0.5032,0.503,0.5026,0.5026,0.5026,0.5025,0,0.5041,0.5035,0.5048,0.5044,0.5044,0.5053,0.505,0.5056,0.5052,0.506,0.5062,0.5055,0.506,0.5053,0.5057,0.5053,0.5066,0.5063,0.5066,0.5065,0.5076,0.5074,0.5115,0.5119,0.5083,0.5083,0.5083,0,0.5064,0.5073,0.5069,0.5073,0.5072,0.5078,0.5081,0.5072,0.5075,0.5074,0.5081,0.5084,0.5087,0.5095,0.509,0.5092,0.5088,0.5102,0.5088,0.509,0.5087,0.5086,0.5086,0.5105,0.5105,0.5106,0.5106,0,0.5103,0.5099,0.5103,0.5105,0.5109,0.511,0.5111,0.5114,0.5104,0.5108,0.5112,0.5114,0.5118,0.5121,0.5122,0.512,0.5111,0.511,0.5112,0.5115,0.5116,0.5114,0.5073,0.5109,0.5109,0.5109,0.5109,0.5108,0.5132,0.5139,0.5137,0.5141,0.514,0.5141,0.5146,0.5142,0.5145,0.5147,0.5141,0.5147,0.5144,0.5144,0.5143,0.5147,0.514,0.5144,0.5145,0.5146,0.5147,0.5116,0.5147,0.5147,0.5147,0.5147,0.5147,0,0.517,0.5168,0.5172,0.5172,0.5175,0.5166,0.5165,0.5168,0.5173,0.5171,0.5174,0.5177,0.518,0.5174,0.5175,0.5179,0.5175,0.518,0.5179,0.5178,0.5154,0.5151,0.5183,0.5183,0.5183,0.5183,0.5183,0.5183,0.519,0.52,0.5196,0.5205,0.5202,0.5207,0.5207,0.5207,0.5205,0.521,0.5212,0.5208,0.5204,0.5204,0.5206,0.5204,0.5204,0.521,0.5207,0.5184,0.518,0.5177,0.5174,0.5211,0.5211,0.5231,0.5231,0.5231]}]]